FW5813 Weather Reports


time (UTC)temp
C
wind
direction
speed
KPH
gust
KPH
rain 1hr
cm
rain 24hr
cm
rain mn
cm
humidity
%
barometer
mb
20260902030111 13 5 1.6 3.2 0.00 0.00 0.00 80 1020.7
20260902025558 13 36 1.6 3.2 0.00 0.00 0.00 81 1020.7
20260902025058 13 5 0.0 3.2 0.00 0.00 0.00 80 1020.8
20260902024058 13 120 1.6 3.2 0.00 0.00 0.00 80 1020.8
20260902023058 13 147 0.0 3.2 0.00 0.00 0.00 80 1020.7
20260902022558 13 141 0.0 3.2 0.00 0.00 0.00 80 1020.3
20260902022058 13 68 1.6 3.2 0.00 0.00 0.00 80 1020.6
20260902021557 13 31 3.2 3.2 0.00 0.00 0.00 80 1020.8
20260902021058 13 34 0.0 3.2 0.00 0.00 0.00 80 1020.7
20260902020557 13 62 0.0 3.2 0.00 0.00 0.00 80 1020.5
20260902020111 13 44 0.0 3.2 0.00 0.00 0.00 81 1020.6
20260902015558 13 20 3.2 3.2 0.00 0.00 0.00 81 1020.8
20260902015058 13 66 0.0 3.2 0.00 0.00 0.00 81 1020.8
20260902014056 13 30 0.0 3.2 0.00 0.00 0.00 80 1020.8
20260902013555 13 63 0.0 3.2 0.00 0.00 0.00 80 1020.8
20260902013056 13 44 0.0 1.6 0.00 0.00 0.00 80 1020.9
20260902012555 13 50 0.0 3.2 0.00 0.00 0.00 79 1020.9
20260902012056 13 66 0.0 3.2 0.00 0.00 0.00 79 1020.9
20260902011055 13 91 0.0 3.2 0.00 0.00 0.00 78 1020.9
20260902010556 13 142 0.0 3.2 0.00 0.00 0.00 78 1020.8
20260902010109 13 243 0.0 3.2 0.00 0.00 0.00 77 1020.9
20260902005556 13 35 1.6 3.2 0.00 0.00 0.00 77 1020.8
20260902005056 13 23 3.2 3.2 0.00 0.00 0.00 76 1021.0
20260902004555 13 44 0.0 1.6 0.00 0.00 0.00 77 1020.9
20260902004056 13 34 0.0 3.2 0.00 0.00 0.00 77 1021.0
20260902003555 14 44 0.0 3.2 0.00 0.00 0.00 76 1020.8
20260902003056 14 33 3.2 3.2 0.00 0.00 0.00 77 1021.0
20260902002556 14 69 0.0 3.2 0.00 0.00 0.00 77 1020.9
20260902002056 14 27 0.0 3.2 0.00 0.00 0.00 77 1020.9
20260902001556 14 25 0.0 3.2 0.00 0.00 0.00 77 1020.9
20260902001056 14 28 1.6 3.2 0.00 0.00 0.00 77 1021.0
20260902000556 14 35 1.6 3.2 0.00 0.00 0.00 78 1021.0
20260902000108 14 97 3.2 3.2 0.00 0.00 0.00 77 1020.8
20260901235556 14 48 0.0 1.6 0.00 0.00 0.00 77 1021.0
20260901235057 14 124 0.0 1.6 0.00 0.00 0.00 77 1020.9
20260901234058 14 151 0.0 3.2 0.00 0.00 0.00 76 1020.7
20260901233556 14 131 0.0 3.2 0.00 0.00 0.00 76 1021.1
20260901233057 14 44 0.0 3.2 0.00 0.00 0.00 77 1021.0
20260901232556 14 37 0.0 3.2 0.00 0.00 0.00 77 1021.0
20260901232056 14 25 0.0 3.2 0.00 0.00 0.00 76 1021.0
20260901231556 14 190 1.6 3.2 0.00 0.00 0.00 76 1021.3
20260901231056 14 29 1.6 3.2 0.00 0.00 0.00 77 1021.1
20260901230556 14 44 0.0 3.2 0.00 0.00 0.00 76 1020.9
20260901225557 14 50 0.0 3.2 0.00 0.00 0.00 77 1021.2
20260901225057 14 29 0.0 3.2 0.00 0.00 0.00 76 1021.0
20260901224557 14 142 0.0 3.2 0.00 0.00 0.00 76 1021.1
20260901224056 14 30 1.6 3.2 0.00 0.00 0.00 76 1021.3
20260901223557 14 57 0.0 3.2 0.00 0.00 0.00 77 1021.2
20260901223056 14 24 1.6 3.2 0.00 0.00 0.00 76 1021.2
20260901222556 14 44 0.0 3.2 0.00 0.00 0.00 78 1021.2
20260901222056 13 33 0.0 0.0 0.00 0.00 0.00 76 1021.1
20260901221556 14 117 0.0 1.6 0.00 0.00 0.00 76 1021.1
20260901220556 14 135 0.0 0.0 0.00 0.00 0.00 74 1021.1
20260901220109 14 117 0.0 0.0 0.00 0.00 0.00 74 1021.2
20260901215557 14 129 0.0 0.0 0.00 0.00 0.00 74 1021.1
20260901215057 14 50 0.0 0.0 0.00 0.00 0.00 73 1020.9
20260901214056 15 135 0.0 3.2 0.00 0.00 0.00 72 1020.9
20260901213057 15 162 0.0 3.2 0.00 0.00 0.00 71 1020.8
20260901212556 15 101 1.6 3.2 0.00 0.00 0.00 71 1020.7
20260901212056 15 131 0.0 1.6 0.00 0.00 0.00 70 1020.7
20260901211556 15 135 0.0 1.6 0.00 0.00 0.00 70 1020.8
20260901211056 15 89 0.0 3.2 0.00 0.00 0.00 70 1020.7
20260901210556 15 22 0.0 3.2 0.00 0.00 0.00 69 1020.7
20260901210109 15 40 0.0 3.2 0.00 0.00 0.00 69 1020.7
20260901205557 15 31 1.6 3.2 0.00 0.00 0.00 69 1020.8
20260901204556 16 23 1.6 3.2 0.00 0.03 0.00 68 1020.6
20260901204057 16 11 1.6 3.2 0.00 0.03 0.00 68 1020.5
20260901203556 16 24 0.0 1.6 0.00 0.03 0.00 69 1020.6
20260901203057 16 42 1.6 3.2 0.00 0.03 0.00 68 1020.8
20260901202556 16 35 0.0 3.2 0.00 0.03 0.00 68 1020.8
20260901202056 16 34 0.0 1.6 0.00 0.03 0.00 69 1020.5
20260901201556 16 32 0.0 1.6 0.00 0.03 0.00 67 1020.8
20260901201056 16 36 0.0 1.6 0.00 0.03 0.00 66 1020.5
20260901200109 17 37 0.0 4.8 0.00 0.03 0.00 64 1020.4
20260901195555 17 16 1.6 3.2 0.00 0.03 0.00 64 1020.5
20260901195056 17 23 0.0 3.2 0.00 0.03 0.00 64 1020.8
20260901194557 17 39 0.0 3.2 0.00 0.03 0.00 64 1020.7
20260901194056 17 44 0.0 3.2 0.00 0.03 0.00 64 1020.7
20260901193556 17 38 0.0 3.2 0.00 0.03 0.00 63 1020.3
20260901193056 17 13 0.0 3.2 0.00 0.03 0.00 63 1020.5
20260901192556 17 17 1.6 3.2 0.00 0.03 0.00 64 1020.2
20260901192057 17 62 0.0 0.0 0.00 0.03 0.00 63 1020.5
20260901191555 17 44 0.0 0.0 0.00 0.03 0.00 62 1020.5
20260901191056 18 50 0.0 0.0 0.00 0.03 0.00 61 1020.5
20260901190556 18 44 0.0 0.0 0.00 0.03 0.00 60 1020.2
20260901190109 18 25 0.0 0.0 0.00 0.03 0.00 59 1020.2
20260901185556 18 25 0.0 1.6 0.00 0.03 0.00 57 1020.3
20260901185057 19 44 0.0 1.6 0.00 0.03 0.00 56 1020.4
20260901184556 19 48 0.0 1.6 0.00 0.03 0.00 56 1020.2
20260901184056 19 24 0.0 1.6 0.00 0.03 0.00 55 1020.0
20260901183057 20 6 0.0 3.2 0.00 0.03 0.00 53 1020.0
20260901182556 20 14 0.0 1.6 0.00 0.03 0.00 53 1019.9
20260901182056 20 25 0.0 1.6 0.00 0.03 0.00 51 1019.8
20260901181556 21 13 0.0 1.6 0.00 0.03 0.00 50 1019.7
20260901181056 21 354 0.0 4.8 0.00 0.03 0.00 49 1020.1
20260901180556 21 243 0.0 4.8 0.00 0.03 0.00 48 1019.6
20260901180109 21 13 0.0 3.2 0.00 0.03 0.00 48 1019.7
20260901175056 22 351 3.2 3.2 0.00 0.03 0.00 46 1019.5
20260901174556 22 5 0.0 4.8 0.00 0.03 0.00 46 1019.4
20260901173556 23 337 0.0 4.8 0.00 0.03 0.00 44 1019.2
20260901173056 23 8 3.2 4.8 0.00 0.03 0.00 43 1019.2
20260901172056 24 4 1.6 8.0 0.00 0.03 0.00 43 1019.2
20260901171109 24 1 3.2 6.4 0.00 0.03 0.00 42 1019.3
20260901170557 25 19 3.2 8.0 0.00 0.03 0.00 41 1019.1
20260901170109 25 260 1.6 8.0 0.00 0.03 0.00 41 1019.2
20260901165055 25 336 1.6 8.0 0.00 0.03 0.00 40 1018.9
20260901164556 25 351 1.6 8.0 0.00 0.03 0.00 40 1019.2
20260901164055 26 354 0.0 8.0 0.00 0.03 0.00 39 1019.2
20260901163056 26 342 6.4 12.9 0.00 0.03 0.00 39 1019.1
20260901162556 26 7 6.4 12.9 0.00 0.03 0.00 38 1019.1
20260901162057 26 349 3.2 9.7 0.00 0.03 0.00 39 1019.1
20260901161056 26 351 3.2 8.0 0.00 0.03 0.00 38 1019.2
20260901160556 26 278 4.8 11.3 0.00 0.03 0.00 39 1019.2
20260901160109 26 253 3.2 11.3 0.00 0.03 0.00 38 1019.1
20260901155056 27 245 3.2 12.9 0.00 0.03 0.00 36 1019.0
20260901154556 27 353 4.8 12.9 0.00 0.03 0.00 36 1019.3
20260901154056 27 230 0.0 9.7 0.00 0.03 0.00 37 1019.0
20260901153556 27 306 3.2 12.9 0.00 0.03 0.00 36 1019.1
20260901153056 27 336 3.2 12.9 0.00 0.03 0.00 37 1018.9
20260901152556 27 323 3.2 12.9 0.00 0.03 0.00 36 1019.3
20260901151556 27 268 4.8 9.7 0.00 0.03 0.00 36 1019.3
20260901151056 27 336 3.2 12.9 0.00 0.03 0.00 37 1019.1
20260901150556 27 242 4.8 16.1 0.00 0.03 0.00 37 1019.0
20260901145556 27 8 4.8 19.3 0.00 0.03 0.00 37 1019.1
20260901144056 27 335 4.8 16.1 0.00 0.03 0.00 36 1018.8
20260901143556 27 356 4.8 20.9 0.00 0.03 0.00 37 1019.0
20260901143056 27 4 6.4 20.9 0.00 0.03 0.00 37 1018.8
20260901142056 27 342 4.8 17.7 0.00 0.03 0.00 36 1019.4
20260901141556 28 231 9.7 19.3 0.00 0.03 0.00 35 1019.4
20260901141055 28 241 3.2 25.7 0.00 0.03 0.00 34 1019.2
20260901140109 27 301 3.2 14.5 0.00 0.03 0.00 36 1019.1
20260901135056 27 261 4.8 19.3 0.00 0.03 0.00 36 1019.1
20260901134556 27 344 12.9 17.7 0.00 0.03 0.00 36 1019.4
20260901134056 28 2 0.0 14.5 0.00 0.03 0.00 35 1019.3
20260901132556 27 346 1.6 14.5 0.00 0.03 0.00 37 1019.3
20260901131556 26 343 1.6 20.9 0.00 0.03 0.00 40 1019.6
20260901131055 27 3 4.8 19.3 0.00 0.03 0.00 38 1019.5
20260901130109 26 313 3.2 14.5 0.00 0.03 0.00 39 1019.5
20260901125556 26 232 4.8 14.5 0.00 0.03 0.00 39 1019.6
20260901125057 26 353 3.2 11.3 0.00 0.03 0.00 39 1019.5
20260901124606 26 293 3.2 11.3 0.00 0.03 0.00 39 1019.9
20260901124056 26 238 1.6 11.3 0.00 0.03 0.00 38 1019.6
20260901123556 26 332 3.2 14.5 0.00 0.03 0.00 38 1019.6
20260901123056 26 290 3.2 14.5 0.00 0.03 0.00 39 1019.6
20260901122556 26 347 4.8 14.5 0.00 0.03 0.00 38 1019.8
20260901121556 26 306 3.2 17.7 0.00 0.03 0.00 40 1019.8
20260901121056 25 359 11.3 19.3 0.00 0.03 0.00 40 1019.6
20260901120556 25 220 3.2 19.3 0.00 0.03 0.00 39 1019.7
20260901115556 26 319 6.4 20.9 0.00 0.03 0.00 40 1019.8
20260901115056 26 338 4.8 17.7 0.00 0.03 0.00 40 1019.8
20260901114556 26 341 6.4 17.7 0.00 0.03 0.00 39 1019.9
20260901114056 26 296 3.2 17.7 0.00 0.03 0.00 38 1019.8
20260901113556 27 247 3.2 17.7 0.00 0.03 0.00 37 1020.0
20260901113056 26 356 8.0 17.7 0.00 0.03 0.00 40 1020.2
20260901112556 27 306 3.2 16.1 0.00 0.03 0.00 38 1019.7
20260901112056 28 217 3.2 17.7 0.00 0.03 0.00 36 1019.9
20260901110556 27 285 3.2 9.7 0.00 0.03 0.00 37 1019.9
20260901105556 27 250 1.6 19.3 0.00 0.03 0.00 39 1019.9
20260901105055 27 354 9.7 20.9 0.00 0.03 0.00 39 1019.9
20260901104555 26 294 9.7 20.9 0.00 0.03 0.00 39 1019.9
20260901104056 26 348 11.3 22.5 0.00 0.03 0.00 39 1020.1
20260901103555 25 238 6.4 22.5 0.00 0.03 0.00 40 1020.1
20260901103056 25 256 6.4 17.7 0.00 0.03 0.00 41 1020.1
20260901102556 26 278 9.7 17.7 0.00 0.03 0.00 39 1020.2
20260901101556 25 233 3.2 14.5 0.00 0.03 0.00 41 1019.9
20260901101056 26 291 6.4 16.1 0.00 0.03 0.00 41 1020.3
20260901100555 26 354 9.7 16.1 0.00 0.03 0.00 41 1020.4
20260901100108 26 347 4.8 17.7 0.00 0.03 0.00 41 1020.1
20260901094555 25 340 4.8 20.9 0.00 0.03 0.00 43 1020.1
20260901094055 25 1 14.5 17.7 0.00 0.03 0.00 43 1020.3
20260901093555 25 213 4.8 29.0 0.00 0.03 0.00 43 1020.3
20260901093109 25 3 4.8 29.0 0.00 0.03 0.00 44 1020.4
20260901092556 25 237 3.2 17.7 0.00 0.03 0.00 43 1020.1
20260901092055 25 352 16.1 17.7 0.00 0.03 0.00 43 1020.2
20260901091555 25 193 4.8 20.9 0.00 0.03 0.00 44 1020.3
20260901091055 25 242 4.8 20.9 0.00 0.03 0.00 45 1020.0
20260901090555 25 339 3.2 20.9 0.00 0.03 0.00 44 1020.4
20260901090107 25 5 9.7 20.9 0.00 0.03 0.00 42 1020.5
20260901085554 25 314 6.4 14.5 0.00 0.03 0.00 43 1020.3
20260901085055 25 284 12.9 14.5 0.00 0.03 0.00 43 1020.3
20260901084608 25 302 4.8 14.5 0.00 0.03 0.00 45 1020.4
20260901083555 25 35 4.8 16.1 0.00 0.03 0.00 46 1020.4
20260901083054 25 284 3.2 14.5 0.00 0.03 0.00 46 1020.6
20260901082555 25 319 6.4 12.9 0.00 0.03 0.00 47 1020.5
20260901082054 25 221 4.8 11.3 0.00 0.03 0.00 48 1020.5
20260901081555 24 28 6.4 11.3 0.00 0.03 0.00 49 1020.6
20260901081055 24 31 4.8 12.9 0.00 0.03 0.00 50 1020.4
20260901080555 23 13 8.0 20.9 0.00 0.03 0.00 50 1020.4
20260901080113 23 346 11.3 20.9 0.00 0.03 0.00 53 1020.4
20260901075555 23 356 8.0 20.9 0.00 0.03 0.00 52 1020.6
20260901075055 23 4 12.9 19.3 0.00 0.03 0.00 52 1020.5
20260901074555 23 214 3.2 12.9 0.00 0.03 0.00 52 1020.4
20260901074055 23 351 1.6 9.7 0.00 0.03 0.00 53 1020.5
20260901073554 23 345 6.4 12.9 0.00 0.03 0.00 53 1020.4
20260901073108 23 220 0.0 12.9 0.00 0.03 0.00 53 1020.3
20260901072559 23 223 1.6 16.1 0.00 0.03 0.00 54 1020.1
20260901072055 23 346 6.4 16.1 0.00 0.03 0.00 54 1020.2
20260901071555 22 254 8.0 16.1 0.00 0.03 0.00 55 1020.3
20260901071107 22 346 8.0 12.9 0.00 0.03 0.00 55 1020.1
20260901070555 22 5 3.2 11.3 0.00 0.03 0.00 56 1020.3
20260901070108 22 342 3.2 8.0 0.00 0.03 0.00 56 1020.0
20260901065554 22 27 3.2 11.3 0.00 0.03 0.00 56 1019.9
20260901065055 22 193 3.2 11.3 0.00 0.03 0.00 55 1020.2
20260901064555 22 236 3.2 8.0 0.00 0.03 0.00 56 1020.1
20260901064055 22 207 3.2 8.0 0.00 0.03 0.00 57 1020.0
20260901063555 22 261 0.0 8.0 0.00 0.03 0.00 58 1019.8
20260901063055 21 234 8.0 8.0 0.00 0.03 0.00 59 1020.0
20260901062555 21 214 1.6 8.0 0.00 0.03 0.00 60 1020.0
20260901062055 20 272 1.6 9.7 0.00 0.03 0.00 62 1019.9
20260901061554 20 214 1.6 14.5 0.00 0.03 0.00 64 1020.0
20260901061056 20 243 12.9 14.5 0.00 0.03 0.00 64 1020.0
20260901060556 20 135 0.0 9.7 0.00 0.03 0.00 65 1019.9
20260901060107 20 25 3.2 11.3 0.00 0.03 0.00 65 1019.6
20260901055055 19 262 3.2 11.3 0.00 0.03 0.00 66 1019.8
20260901054555 18 344 4.8 8.0 0.00 0.03 0.00 68 1019.8
20260901054055 18 279 0.0 9.7 0.00 0.03 0.00 70 1019.7
20260901053555 17 225 8.0 9.7 0.00 0.03 0.00 71 1019.5
20260901052555 17 14 1.6 6.4 0.00 0.03 0.00 74 1019.8
20260901052054 17 43 1.6 8.0 0.00 0.03 0.00 73 1019.5
20260901051054 17 107 3.2 9.7 0.00 0.03 0.00 72 1019.4
20260901050108 17 247 6.4 12.9 0.00 0.03 0.00 74 1019.3
20260901045555 16 254 3.2 11.3 0.00 0.03 0.00 75 1019.5
20260901045055 16 238 1.6 9.7 0.00 0.03 0.00 75 1019.1
20260901044555 16 127 1.6 9.7 0.00 0.03 0.00 76 1019.3
20260901044055 15 212 4.8 6.4 0.00 0.03 0.00 77 1019.1
20260901043555 15 135 3.2 8.0 0.00 0.03 0.00 79 1019.1
20260901043055 15 161 4.8 8.0 0.00 0.03 0.00 78 1019.3
20260901042555 15 252 1.6 6.4 0.00 0.03 0.00 79 1019.0
20260901041555 15 268 1.6 4.8 0.00 0.03 0.00 79 1019.2
20260901041055 15 28 3.2 4.8 0.00 0.03 0.00 78 1019.0
20260901040555 15 172 3.2 4.8 0.00 0.03 0.00 78 1019.2
20260901040108 16 215 3.2 6.4 0.00 0.03 0.00 76 1019.2
20260901035555 16 228 1.6 6.4 0.00 0.03 0.00 76 1019.1
20260901035055 16 248 0.0 4.8 0.00 0.03 0.00 75 1019.1
20260901034555 16 21 3.2 3.2 0.00 0.03 0.00 75 1018.9
20260901034056 16 205 3.2 3.2 0.00 0.03 0.00 75 1018.9
20260901033555 16 241 0.0 3.2 0.00 0.03 0.00 75 1018.5
20260901033055 16 195 0.0 3.2 0.00 0.03 0.00 74 1018.8
20260901032555 16 212 0.0 3.2 0.00 0.03 0.00 74 1018.8
20260901032054 16 321 0.0 3.2 0.00 0.03 0.00 75 1018.6
20260901031555 16 213 1.6 4.8 0.00 0.03 0.00 74 1018.5
20260901030554 16 308 0.0 4.8 0.00 0.03 0.00 75 1018.5